Location: Eymir
(36.7333°N, 29.7833°E)
Time: 01:10:51
(UTC+00:00)

VELOX 1 - Pass Details

Date: 17 May 2026
Orbit: 569 x 578 km, 98.3° (Epoch: 10 June)

Event Time Altitude Azimuth Distance (km) Brightness Sun altitude
Rises 21:12:15 0° 15° (NNE) 2,792 ? -32.8°
Reaches altitude 10° 21:14:25 10° 18° (NNE) 1,891 ? -32.9°
Enters shadow 21:15:33 18° 21° (NNE) 1,433 ? -32.9°
